2023/09/18 00:00:00,57.6,20.2
2023/09/18 00:10:00,57.5,20.2
2023/09/18 00:20:00,57.5,20.4
2023/09/18 00:30:00,57.6,20.4
2023/09/18 00:40:00,57.6,20.4
2023/09/18 00:50:00,57.6,20.4
2023/09/18 01:00:00,57.6,20.8
2023/09/18 01:10:00,57.6,20.6
2023/09/18 01:20:00,57.6,20.5
2023/09/18 01:30:00,57.6,20.4
2023/09/18 01:40:00,57.6,20.4
2023/09/18 01:50:00,57.6,20.6
2023/09/18 02:00:00,57.6,20.4
2023/09/18 02:10:00,57.6,20.4
2023/09/18 02:20:00,57.5,20.0
2023/09/18 02:30:00,57.5,19.9
2023/09/18 02:40:00,57.5,19.9
2023/09/18 02:50:00,57.5,19.6
2023/09/18 03:00:00,57.5,19.8
2023/09/18 03:10:00,57.4,19.6
2023/09/18 03:20:00,57.4,19.5
2023/09/18 03:30:00,57.3,19.3
2023/09/18 03:40:00,57.3,19.4
2023/09/18 03:50:00,57.3,19.2
2023/09/18 04:00:00,57.3,19.2
2023/09/18 04:10:00,57.2,19.3
2023/09/18 04:20:00,57.2,19.1
2023/09/18 04:30:00,57.2,19.2
2023/09/18 04:40:00,57.2,19.0
2023/09/18 04:50:00,57.2,19.1
2023/09/18 05:00:00,57.1,19.0
2023/09/18 05:10:00,57.2,19.0
2023/09/18 05:20:00,57.1,18.9
2023/09/18 05:30:00,57.1,18.8
2023/09/18 05:40:00,57.0,18.9
2023/09/18 05:50:00,57.0,18.9
2023/09/18 06:00:00,56.9,18.9
2023/09/18 06:10:00,56.9,19.0
2023/09/18 06:20:00,56.9,19.1
2023/09/18 06:30:00,56.9,19.4
2023/09/18 06:40:00,56.7,19.6
2023/09/18 06:50:00,56.6,19.7
2023/09/18 07:00:00,56.6,19.9
2023/09/18 07:10:00,56.7,19.9
2023/09/18 07:20:00,56.7,20.2
2023/09/18 07:30:00,56.8,20.2
2023/09/18 07:40:00,56.8,20.5
2023/09/18 07:50:00,56.8,20.8
2023/09/18 08:00:00,56.8,21.2
2023/09/18 08:10:00,56.8,22.1
2023/09/18 08:20:00,56.9,23.1
2023/09/18 08:30:00,56.8,23.3
2023/09/18 08:40:00,56.6,23.8
2023/09/18 08:50:00,56.6,23.9
2023/09/18 09:00:00,56.6,23.8
2023/09/18 09:10:00,56.6,24.1
2023/09/18 09:20:00,56.7,24.7
2023/09/18 09:30:00,56.5,25.6
2023/09/18 09:40:00,55.8,26.6
2023/09/18 09:50:00,---,26.7
2023/09/18 10:00:00,---,26.3
2023/09/18 10:10:00,54.8,26.7
2023/09/18 10:20:00,55.8,26.2
2023/09/18 10:30:00,56.0,26.7
2023/09/18 10:40:00,---,25.5
2023/09/18 10:50:00,56.3,25.1
2023/09/18 11:00:00,56.5,26.1
2023/09/18 11:10:00,56.2,27.2
2023/09/18 11:20:00,54.9,27.6
2023/09/18 11:30:00,55.5,27.3
2023/09/18 11:40:00,54.9,28.2
2023/09/18 11:50:00,---,27.8
2023/09/18 12:00:00,25.0,27.1
2023/09/18 12:10:00,54.0,26.6
2023/09/18 12:20:00,55.6,26.5
2023/09/18 12:30:00,55.6,26.6
2023/09/18 12:40:00,54.5,25.7
2023/09/18 12:50:00,54.6,25.0
2023/09/18 13:00:00,55.4,25.0
2023/09/18 13:10:00,55.6,25.1
2023/09/18 13:20:00,55.8,25.9
2023/09/18 13:30:00,55.9,25.1
2023/09/18 13:40:00,56.3,25.0
2023/09/18 13:50:00,48.7,22.3
2023/09/18 14:00:00,50.9,21.4
2023/09/18 14:10:00,55.9,22.3
2023/09/18 14:20:00,56.1,21.7
2023/09/18 14:30:00,56.3,21.2
2023/09/18 14:40:00,56.5,21.1
2023/09/18 14:50:00,56.4,21.1
2023/09/18 15:00:00,56.2,21.2
2023/09/18 15:10:00,55.6,21.6
2023/09/18 15:20:00,56.1,21.7
2023/09/18 15:30:00,55.8,22.1
2023/09/18 15:40:00,55.9,22.1
2023/09/18 15:50:00,55.7,23.3
2023/09/18 16:00:00,38.9,23.3
2023/09/18 16:10:00,---,23.1
2023/09/18 16:20:00,52.8,23.0
2023/09/18 16:30:00,55.8,22.6
2023/09/18 16:40:00,56.3,22.3
2023/09/18 16:50:00,56.5,22.3
2023/09/18 17:00:00,56.5,22.2
2023/09/18 17:10:00,56.5,22.1
2023/09/18 17:20:00,56.6,22.1
2023/09/18 17:30:00,56.5,22.1
2023/09/18 17:40:00,56.4,22.3
2023/09/18 17:50:00,56.4,22.0
2023/09/18 18:00:00,56.6,21.8
2023/09/18 18:10:00,56.6,21.5
2023/09/18 18:20:00,56.6,21.5
2023/09/18 18:30:00,56.6,21.5
2023/09/18 18:40:00,56.7,21.5
2023/09/18 18:50:00,56.6,21.2
2023/09/18 19:00:00,56.7,21.0
2023/09/18 19:10:00,56.6,21.2
2023/09/18 19:20:00,56.6,21.3
2023/09/18 19:30:00,56.6,21.3
2023/09/18 19:40:00,56.7,21.2
2023/09/18 19:50:00,56.7,21.1
2023/09/18 20:00:00,56.6,21.2
2023/09/18 20:10:00,56.7,21.3
2023/09/18 20:20:00,56.8,21.3
2023/09/18 20:30:00,56.6,21.2
2023/09/18 20:40:00,56.6,21.3
2023/09/18 20:50:00,56.7,21.1
2023/09/18 21:00:00,56.8,20.8
2023/09/18 21:10:00,56.7,20.7
2023/09/18 21:20:00,56.7,20.7
2023/09/18 21:30:00,56.7,20.8
2023/09/18 21:40:00,56.8,20.7
2023/09/18 21:50:00,56.6,20.5
2023/09/18 22:00:00,56.7,20.8
2023/09/18 22:10:00,56.7,20.6
2023/09/18 22:20:00,56.7,20.6
2023/09/18 22:30:00,56.8,20.4
2023/09/18 22:40:00,56.8,21.0
2023/09/18 22:50:00,56.8,20.4
2023/09/18 23:00:00,56.7,20.4
2023/09/18 23:10:00,56.7,20.2
2023/09/18 23:20:00,56.7,20.4
2023/09/18 23:30:00,56.9,20.4
2023/09/18 23:40:00,56.8,19.9
2023/09/18 23:50:00,56.8,20.0
